GW4551 Weather Reports


time (UTC)temp
C
wind
direction
speed
KPH
gust
KPH
rain 1hr
cm
rain 24hr
cm
rain mn
cm
humidity
%
barometer
mb
20260507040615 4 336 3.2 3.2 0.00 0.00 0.00 95 1015.5
20260507035530 4 339 3.2 3.2 0.00 0.00 0.00 94 1015.6
20260507034526 4 344 1.6 3.2 0.00 0.00 0.00 94 1015.5
20260507033522 4 339 3.2 4.8 0.00 0.00 0.00 94 1015.5
20260507032559 4 336 3.2 4.8 0.00 0.00 0.00 94 1015.5
20260507031534 4 335 1.6 3.2 0.00 0.00 0.00 94 1015.5
20260507030530 4 336 1.6 3.2 0.00 0.00 0.00 93 1015.5
20260507025525 5 334 3.2 3.2 0.00 0.00 0.00 93 1015.5
20260507024521 5 342 3.2 3.2 0.00 0.00 0.00 93 1015.4
20260507023517 5 340 1.6 3.2 0.00 0.00 0.00 93 1015.3
20260507022533 5 337 3.2 3.2 0.00 0.00 0.00 92 1015.4
20260507021609 5 337 3.2 4.8 0.00 0.00 0.00 92 1015.3
20260507020524 5 339 3.2 3.2 0.00 0.00 0.00 91 1015.3
20260507015520 5 336 3.2 4.8 0.00 0.00 0.00 91 1015.2
20260507014517 5 335 4.8 4.8 0.00 0.00 0.00 90 1015.2
20260507013533 5 341 3.2 4.8 0.00 0.00 0.00 90 1015.1
20260507012528 5 337 3.2 4.8 0.00 0.00 0.00 89 1015.1
20260507011524 5 341 4.8 4.8 0.00 0.00 0.00 88 1015.2
20260507010520 5 340 4.8 4.8 0.00 0.00 0.00 87 1015.3
20260507005536 5 340 3.2 4.8 0.00 0.00 0.00 87 1015.2
20260507004532 5 339 3.2 4.8 0.00 0.00 0.00 86 1015.3
20260507003527 5 340 3.2 4.8 0.00 0.00 0.00 85 1015.3
20260507002602 6 343 3.2 4.8 0.00 0.00 0.00 84 1015.3
20260507001518 6 338 3.2 4.8 0.00 0.00 0.00 83 1015.3
20260507000534 6 341 3.2 4.8 0.00 0.00 0.00 82 1015.3
20260506235530 6 338 1.6 3.2 0.00 0.00 0.00 81 1015.4
20260506234526 6 330 1.6 3.2 0.00 0.00 0.00 80 1015.2
20260506233522 6 326 0.0 1.6 0.00 0.00 0.00 80 1015.1
20260506232517 7 340 1.6 3.2 0.00 0.00 0.00 78 1015.2
20260506231534 7 29 1.6 3.2 0.00 0.00 0.00 77 1014.9
20260506230529 7 32 3.2 3.2 0.00 0.00 0.00 77 1015.1
20260506225526 7 352 1.6 1.6 0.00 0.00 0.00 76 1015.1
20260506224521 7 337 3.2 4.8 0.00 0.00 0.00 75 1015.1
20260506223517 7 337 3.2 3.2 0.00 0.00 0.00 74 1015.1
20260506222532 8 352 1.6 3.2 0.00 0.00 0.00 73 1015.1
20260506221528 8 35 3.2 3.2 0.00 0.00 0.00 72 1015.0
20260506220536 8 20 1.6 3.2 0.00 0.00 0.00 71 1014.9
20260506215530 8 355 1.6 1.6 0.00 0.00 0.00 70 1014.9
20260506214606 8 347 1.6 1.6 0.00 0.00 0.00 69 1014.9
20260506213519 8 21 3.2 6.4 0.00 0.00 0.00 69 1014.8
20260506212534 8 25 3.2 6.4 0.00 0.00 0.00 69 1014.8
20260506211609 8 31 3.2 4.8 0.00 0.00 0.00 69 1014.9
20260506210524 9 30 3.2 6.4 0.00 0.00 0.00 68 1014.7
20260506205519 9 20 3.2 4.8 0.00 0.00 0.00 67 1014.7
20260506204534 10 0 1.6 3.2 0.00 0.00 0.00 66 1014.7
20260506203528 10 354 1.6 3.2 0.00 0.00 0.00 66 1014.6
20260506202523 10 355 1.6 3.2 0.00 0.00 0.00 66 1014.5
20260506201518 10 344 1.6 4.8 0.00 0.00 0.00 65 1014.4
20260506200534 10 359 1.6 3.2 0.00 0.00 0.00 65 1014.4
20260506195529 10 350 3.2 4.8 0.00 0.00 0.00 65 1014.4
20260506194526 10 350 3.2 6.4 0.00 0.00 0.00 64 1014.2
20260506193520 10 338 3.2 6.4 0.00 0.00 0.00 63 1014.1
20260506192534 10 339 3.2 4.8 0.00 0.00 0.00 63 1014.0
20260506191528 10 340 6.4 9.7 0.00 0.00 0.00 62 1014.0
20260506190517 11 336 6.4 11.3 0.00 0.00 0.00 62 1013.9
20260506185533 11 337 6.4 12.9 0.00 0.00 0.00 62 1013.7
20260506184529 11 328 8.0 11.3 0.00 0.00 0.00 62 1013.7
20260506183525 11 331 4.8 9.7 0.00 0.00 0.00 63 1013.6
20260506182520 11 330 6.4 12.9 0.00 0.00 0.00 62 1013.7
20260506181537 11 335 4.8 6.4 0.00 0.00 0.00 62 1013.6
20260506180532 11 342 4.8 9.7 0.00 0.00 0.00 61 1013.4
20260506175608 11 352 4.8 9.7 0.00 0.00 0.00 60 1013.3
20260506174524 11 329 8.0 11.3 0.00 0.00 0.00 60 1013.1
20260506173520 11 315 4.8 9.7 0.00 0.00 0.00 60 1013.2
20260506172516 11 323 4.8 9.7 0.00 0.00 0.00 59 1013.1
20260506171531 11 328 4.8 9.7 0.00 0.00 0.00 60 1013.1
20260506170607 12 330 3.2 6.4 0.00 0.00 0.00 59 1013.1
20260506165522 12 347 6.4 9.7 0.00 0.00 0.00 60 1013.2
20260506164518 12 345 4.8 11.3 0.00 0.00 0.00 57 1013.1
20260506163614 12 343 6.4 12.9 0.00 0.00 0.00 56 1013.1
20260506162530 12 3 6.4 14.5 0.00 0.00 0.00 56 1013.1
20260506161526 13 3 8.0 12.9 0.00 0.00 0.00 56 1013.1
20260506160522 12 346 8.0 16.1 0.00 0.00 0.00 55 1013.0
20260506155518 12 3 6.4 12.9 0.00 0.00 0.00 54 1013.2
20260506154534 12 19 6.4 14.5 0.00 0.00 0.00 53 1013.2
20260506153609 12 26 9.7 16.1 0.00 0.00 0.00 55 1013.1
20260506152605 13 12 11.3 16.1 0.00 0.00 0.00 54 1013.2
20260506151602 12 20 8.0 24.1 0.00 0.00 0.00 53 1013.1
20260506150517 13 26 11.3 20.9 0.00 0.00 0.00 50 1013.1
20260506145534 13 7 8.0 14.5 0.00 0.00 0.00 52 1013.2
20260506144530 12 6 9.7 17.7 0.00 0.00 0.00 53 1013.1
20260506143526 13 9 11.3 20.9 0.00 0.00 0.00 50 1013.1
20260506142522 12 333 11.3 17.7 0.00 0.00 0.00 52 1013.0
20260506141518 12 348 11.3 17.7 0.00 0.00 0.00 51 1013.1
20260506140534 13 32 6.4 11.3 0.00 0.00 0.00 49 1013.0
20260506135530 13 332 9.7 16.1 0.00 0.00 0.00 52 1013.1
20260506134526 13 337 12.9 17.7 0.00 0.00 0.00 48 1013.0
20260506133521 13 329 12.9 24.1 0.00 0.00 0.00 51 1013.1
20260506132517 12 39 8.0 17.7 0.00 0.00 0.00 53 1013.0
20260506131533 13 319 12.9 20.9 0.00 0.00 0.00 51 1013.0
20260506130529 13 345 12.9 22.5 0.00 0.00 0.00 49 1013.2
20260506125524 13 343 8.0 17.7 0.00 0.00 0.00 51 1013.2
20260506124520 12 328 9.7 20.9 0.00 0.00 0.00 53 1013.2
20260506123616 13 3 9.7 16.1 0.00 0.00 0.00 50 1013.2
20260506122531 13 1 12.9 22.5 0.00 0.00 0.00 51 1013.2
20260506121528 12 14 11.3 22.5 0.00 0.00 0.00 51 1013.3
20260506120524 12 341 14.5 30.6 0.00 0.00 0.00 52 1013.2
20260506115519 12 334 11.3 24.1 0.00 0.00 0.00 56 1013.3
20260506114534 12 333 9.7 16.1 0.00 0.00 0.00 57 1013.3
20260506113530 12 354 11.3 22.5 0.00 0.00 0.00 57 1013.3
20260506112526 12 14 9.7 16.1 0.00 0.00 0.00 57 1013.5
20260506111521 12 336 9.7 17.7 0.00 0.00 0.00 58 1013.4
20260506110517 12 343 9.7 20.9 0.00 0.00 0.00 57 1013.5
20260506105533 11 348 14.5 20.9 0.00 0.00 0.00 58 1013.5
20260506104529 12 351 9.7 22.5 0.00 0.00 0.00 55 1013.5
20260506103525 11 1 11.3 14.5 0.00 0.00 0.00 57 1013.5
20260506102520 11 323 11.3 17.7 0.00 0.00 0.00 57 1013.4
20260506101516 11 336 11.3 20.9 0.00 0.00 0.00 58 1013.4
20260506100532 11 327 12.9 22.5 0.00 0.00 0.00 59 1013.6
20260506095528 11 343 11.3 27.4 0.00 0.00 0.00 59 1013.5
20260506094524 11 337 11.3 20.9 0.00 0.00 0.00 60 1013.4
20260506093520 11 348 9.7 16.1 0.00 0.00 0.00 61 1013.5
20260506092535 11 24 11.3 17.7 0.00 0.00 0.00 59 1013.4
20260506091532 10 341 11.3 22.5 0.00 0.00 0.00 61 1013.5
20260506090527 10 14 8.0 14.5 0.00 0.00 0.00 64 1013.4
20260506085523 10 348 9.7 17.7 0.00 0.00 0.00 67 1013.5
20260506084519 10 332 9.7 17.7 0.00 0.00 0.00 69 1013.4
20260506083535 10 1 9.7 14.5 0.00 0.00 0.00 68 1013.4
20260506082531 10 30 9.7 17.7 0.00 0.00 0.00 69 1013.5
20260506081527 9 356 9.7 16.1 0.00 0.00 0.00 69 1013.5
20260506080603 9 343 9.7 14.5 0.00 0.00 0.00 72 1013.5
20260506072524 8 343 8.0 16.1 0.00 0.00 0.00 75 1013.5
20260506071521 8 3 11.3 20.9 0.00 0.00 0.00 74 1013.4
20260506070517 7 355 6.4 14.5 0.00 0.00 0.00 77 1013.2
20260506061535 7 345 8.0 14.5 0.00 0.00 0.00 80 1013.1
20260506060530 7 341 8.0 14.5 0.00 0.00 0.00 82 1012.9
20260506050524 7 358 6.4 14.5 0.00 0.00 0.00 81 1012.8
20260506044516 7 23 6.4 9.7 0.00 0.00 0.00 82 1012.8
20260506043533 7 17 8.0 16.1 0.00 0.00 0.00 82 1012.8
20260506042528 7 348 6.4 16.1 0.00 0.00 0.00 84 1012.7
20260506041604 7 4 4.8 14.5 0.00 0.00 0.00 84 1012.6